Location: ASU Dark Sky Observatory
(36.2504°N, 81.4125°W)
Time: 19:23:24
(UTC-05:00)

ETS-7 - Visible Passes

Search period start: 29 January 2015 00:00
Search period end: 08 February 2015 00:00
Orbit: 383 x 389 km, 35.0° (Epoch: 28 January)

Date Brightness Start Highest point End Pass type
(mag) Time Alt. Az. Time Alt. Az. Time Alt. Az.
02 Feb 5.3 06:50:24 10° SSE 06:51:13 11° SSE 06:52:07 10° SE visible
04 Feb 4.6 06:25:35 10° SSW 06:27:51 18° SSE 06:30:10 10° ESE visible
05 Feb 5.0 05:27:20 12° SSE 05:27:43 12° SSE 05:29:03 10° SE visible
06 Feb 3.7 06:02:41 18° SSW 06:04:18 29° SSE 06:07:07 10° E visible
07 Feb 5.2 05:05:39 14° ESE 05:05:39 14° ESE 05:06:26 10° ESE visible
07 Feb 2.6 06:37:53 10° WSW 06:40:59 56° S 06:44:06 10° E visible
